EDT,Max TemperatureF,Mean TemperatureF,Min TemperatureF,Max Dew PointF,MeanDew PointF,Min DewpointF,Max Humidity, Mean Humidity, Min Humidity, Max Sea Level PressureIn, Mean Sea Level PressureIn, Min Sea Level PressureIn, Max VisibilityMiles, Mean VisibilityMiles, Min VisibilityMiles, Max Wind SpeedMPH, Mean Wind SpeedMPH, Max Gust SpeedMPH,PrecipitationIn, CloudCover, Events, WindDirDegrees
2013-5-1,64,60,56,54,51,48,86,73,60,30.28,30.22,30.15,10,10,10,10,4,16,0.00,8,,127
2013-5-2,62,58,53,54,52,50,100,89,78,30.31,30.26,30.22,10,10,4,12,3,17,T,8,Rain,156
2013-5-3,59,56,53,54,49,45,100,83,66,30.25,30.16,30.07,10,10,5,13,5,22,T,8,Rain,132
2013-5-4,55,52,48,48,45,37,93,78,63,30.10,30.03,29.97,10,9,4,12,5,21,0.57,8,Rain,136
2013-5-5,51,49,46,49,47,44,100,92,83,29.97,29.88,29.82,10,4,2,14,4,24,3.40,8,Rain,171
2013-5-6,64,55,45,52,48,38,100,71,42,29.90,29.83,29.78,10,10,6,18,8,23,0.11,5,Rain,160
2013-5-7,66,54,41,52,44,36,100,67,34,29.97,29.91,29.86,10,7,0,12,3,20,0.06,4,Fog-Rain,342
2013-5-8,69,58,47,55,50,46,100,82,63,30.05,29.98,29.92,10,6,0,13,2,18,0.02,7,Fog-Rain,329
2013-5-9,74,62,50,58,53,48,100,75,49,30.15,30.09,30.03,10,4,0,16,3,22,0.96,5,Fog-Rain,311
2013-5-10,77,64,50,57,53,50,100,74,47,30.14,30.07,29.96,10,5,0,23,6,32,0.00,3,Fog,190
2013-5-11,72,64,55,61,57,53,97,78,59,29.95,29.90,29.82,10,8,1,26,4,33,0.40,6,Rain,346
2013-5-12,62,54,46,51,39,30,86,60,33,30.08,29.96,29.89,10,10,10,25,14,35,0.00,0,,350
2013-5-13,62,50,38,37,31,24,85,55,25,30.20,30.13,30.08,10,10,10,18,6,25,0.00,0,,341
2013-5-14,71,54,36,50,41,34,92,62,32,30.25,30.17,30.08,10,10,10,16,4,21,0.00,0,,174
2013-5-15,85,68,51,54,51,48,89,59,29,30.11,30.04,29.96,10,10,9,18,7,24,T,1,,348
2013-5-16,78,65,52,55,53,50,96,70,43,30.06,30.02,29.98,10,10,9,13,3,17,0.00,0,,342
2013-5-17,79,66,53,59,55,52,100,72,43,30.15,30.08,30.03,10,10,7,16,4,21,0.00,1,,202
2013-5-18,67,63,59,63,61,56,100,89,78,30.16,30.11,30.05,10,6,1,14,4,17,1.08,7,Rain,159
2013-5-19,74,68,61,64,62,61,100,84,68,30.16,30.09,30.01,10,8,0,15,5,20,0.35,7,Fog-Rain,174
2013-5-20,81,71,61,66,62,61,100,77,54,30.17,30.10,30.03,10,6,0,13,4,17,0.00,5,Fog,206
2013-5-21,84,71,58,65,60,57,100,74,47,30.13,30.05,29.96,10,5,0,14,3,18,0.00,3,Fog,281
2013-5-22,80,70,60,65,61,56,100,77,53,30.06,29.98,29.87,10,9,1,20,4,29,0.80,4,Rain-Thunderstorm,172
2013-5-23,79,70,61,62,58,52,100,72,43,30.01,29.92,29.84,10,10,6,22,8,30,T,6,Rain,347
2013-5-24,66,58,49,52,44,35,86,60,34,30.24,30.07,29.90,10,10,10,35,12,40,T,2,,350
2013-5-25,74,59,44,44,37,31,77,49,20,30.32,30.24,30.19,10,10,10,22,8,29,0.00,0,,345
2013-5-26,74,62,50,49,46,42,83,59,35,30.29,30.22,30.17,10,10,10,16,4,20,0.05,4,Rain,344
2013-5-27,78,64,49,56,52,47,100,72,43,30.27,30.21,30.15,10,10,10,14,5,20,0.00,0,,163
2013-5-28,81,68,55,59,57,54,93,69,45,30.20,30.17,30.14,10,10,8,18,7,24,0.00,0,,167
2013-5-29,81,70,58,61,59,56,93,69,45,30.24,30.19,30.15,10,10,10,14,4,20,0.00,0,,160
2013-5-30,79,68,57,61,58,55,97,73,48,30.33,30.23,30.17,10,10,8,15,4,20,0.00,2,,150
2013-5-31,80,71,61,61,60,57,93,69,45,30.29,30.19,30.12,10,10,10,17,6,22,0.00,4,,182